Theta_e
304 306 307 310 310 312 314 315 316 317 316 318 319 320 321 320 322 322 321 320 320 318 318 320 321 320 320 319 319 319 319 318 318 318 317 315 314 313 311 313 312 309 308 306 306 306 304 302 301 301 300 300 298 297 296 295 293 293 292 292 291 289 289 287 285 284 286 288 287 286 286 284 284 285 285 285 284 284 287 285 285 284 285 284 284
304 305 305 308 308 311 312 312 313 314 314 315 316 318 318 319 319 316 318 317 318 318 317 317 317 318 318 318 317 317 317 318 316 316 314 313 311 312 311 310 308 305 304 303 303 304 302 300 298 298 298 297 295 295 294 293 292 291 290 290 289 289 287 287 286 284 284 285 285 285 284 285 283 284 284 283 283 283 283 283 285 284 284 284 284
302 304 305 306 307 307 308 309 309 309 310 310 311 312 312 310 311 311 312 311 311 316 316 315 315 315 315 315 316 315 316 316 314 315 314 313 310 309 309 308 306 303 302 301 301 301 299 298 297 296 295 294 293 292 291 291 290 290 289 289 287 287 287 286 286 285 283 283 283 283 283 284 283 282 283 284 283 284 283 283 283 284 285 283 283
302 301 301 303 304 304 304 303 303 303 305 307 308 307 309 309 309 309 309 310 313 312 314 316 315 314 314 314 314 314 314 314 313 313 314 312 309 308 307 306 305 303 302 301 300 299 298 296 295 295 294 293 291 290 289 289 289 289 288 288 287 286 286 286 285 284 284 283 282 283 283 283 282 283 284 283 284 283 283 283 282 283 283 283 282
299 298 298 300 301 302 302 302 303 304 305 305 308 308 308 308 307 310 309 311 313 313 312 313 314 314 314 313 313 313 313 313 312 312 311 310 309 308 306 305 303 302 301 301 297 299 297 296 295 294 293 292 290 289 288 288 288 287 287 287 286 286 287 286 285 284 283 283 283 283 283 282 283 283 283 284 283 282 282 282 282 282 282 282 283
296 295 295 297 298 299 299 299 302 303 305 306 305 307 309 310 311 310 311 315 312 312 313 311 311 312 312 312 312 312 312 312 311 311 310 308 307 307 306 305 303 301 300 299 298 298 297 295 294 293 293 291 290 289 288 288 288 287 286 286 286 285 285 284 284 284 283 282 282 282 282 282 282 283 283 284 282 281 281 281 280 280 280 280 280
296 297 298 298 297 296 295 296 297 299 302 305 305 306 307 306 308 309 307 309 308 308 307 309 307 310 310 310 310 310 310 310 310 310 308 307 306 305 303 302 300 299 298 297 296 297 296 295 293 293 292 291 290 288 288 287 287 286 286 286 286 285 284 284 284 283 283 282 281 282 281 282 282 280 282 283 282 281 280 279 278 280 280 280 279
299 299 299 298 299 299 299 299 300 302 302 302 303 302 302 303 305 304 301 306 306 306 306 307 306 305 307 307 308 307 307 307 308 308 307 306 303 300 299 298 297 296 295 295 295 295 294 293 293 293 292 291 289 288 288 287 287 286 285 286 285 285 284 284 283 282 282 281 281 281 281 281 280 281 282 281 280 280 280 278 277 277 277 279 279
298 299 298 298 298 298 299 298 300 300 300 300 299 299 298 296 296 296 296 297 300 302 304 304 302 301 300 301 303 303 305 305 305 303 302 300 302 301 299 297 296 294 293 293 294 293 293 292 292 292 291 289 288 288 288 288 287 286 285 285 285 284 284 283 283 282 281 281 281 281 280 279 280 280 279 279 279 279 279 279 278 277 277 277 278
296 298 297 297 297 298 298 297 298 296 297 298 297 295 294 293 293 294 294 294 294 294 295 296 296 297 297 296 296 299 301 302 298 298 299 301 300 299 297 296 295 294 293 292 292 292 292 291 291 288 288 287 287 288 289 289 288 287 286 286 285 284 284 283 282 282 281 281 281 281 280 280 280 280 279 279 279 279 279 278 277 276 276 276 277
296 297 297 297 297 296 296 295 293 293 294 292 292 292 293 292 292 292 292 292 293 292 293 294 294 295 296 296 295 295 297 298 295 298 298 298 299 297 295 294 294 293 293 292 291 291 290 290 290 288 287 287 287 288 289 289 289 288 288 288 287 285 284 283 282 282 282 281 281 280 280 280 279 278 278 279 279 279 278 278 277 276 272 271 272
296 297 297 297 296 296 294 293 292 291 291 291 291 290 291 291 291 291 291 292 291 292 291 293 293 292 293 293 294 294 294 294 296 297 297 297 296 295 295 294 293 293 293 293 292 291 290 288 287 287 287 287 287 287 288 288 288 288 288 288 288 288 288 285 283 282 282 281 280 281 280 280 279 278 278 279 279 278 278 277 277 274 271 271 271
295 296 297 295 294 293 292 291 290 290 290 290 290 290 290 290 290 290 290 290 291 290 290 291 291 291 291 293 293 292 292 293 295 296 296 297 296 295 295 294 294 293 293 292 291 290 289 287 285 285 286 285 286 286 285 285 287 288 288 287 287 288 288 288 288 284 284 282 281 281 281 280 279 279 279 279 280 277 277 276 276 274 273 272 273
295 294 293 293 293 291 291 291 290 290 290 290 290 290 289 289 289 289 290 289 289 289 290 289 290 290 290 291 291 290 291 291 295 295 296 296 296 296 294 294 294 293 292 292 291 289 288 287 285 284 283 284 284 283 283 283 283 283 283 283 283 284 287 287 285 285 285 283 283 282 282 281 280 280 280 281 279 277 276 274 274 272 272 273 274
294 294 293 292 291 291 291 290 290 290 289 289 289 289 289 289 289 289 288 288 288 288 288 289 289 289 289 290 290 290 291 292 294 295 295 295 296 295 293 293 292 291 291 290 289 288 287 286 285 284 283 283 283 283 282 282 281 281 281 280 281 281 282 282 282 281 281 283 282 282 282 282 281 280 280 280 279 278 278 274 273 272 273 273 273
291 291 291 291 290 290 290 289 289 289 288 288 288 288 289 288 288 288 289 289 289 289 289 289 288 288 289 289 289 290 289 292 293 294 295 295 295 291 291 291 290 290 289 288 287 287 286 285 283 282 282 282 284 285 284 281 280 279 279 279 279 280 280 282 283 283 282 282 282 282 281 281 281 280 280 279 279 278 275 271 270 270 269 268 269
289 290 290 290 289 289 289 289 289 288 287 288 288 288 288 288 288 288 288 288 288 288 288 289 288 288 288 288 288 288 288 290 292 293 294 295 293 290 289 289 289 288 288 287 286 285 284 283 283 282 282 281 284 286 286 283 279 279 278 279 280 280 279 281 284 284 284 284 284 284 283 283 283 283 283 283 281 277 270 269 269 266 266 266 266
289 290 290 291 289 289 289 289 289 287 287 288 288 287 287 287 287 287 287 287 288 288 288 287 287 287 287 288 288 288 288 288 290 292 293 294 291 289 288 288 287 287 286 285 284 284 283 283 282 282 282 281 286 287 286 283 280 279 279 279 279 278 279 280 282 283 284 283 282 282 282 281 282 282 282 282 282 280 271 270 266 267 266 265 266
289 289 290 291 290 290 288 288 288 287 287 287 287 287 287 287 287 287 288 287 287 287 287 287 287 287 287 287 288 288 287 287 289 291 292 293 290 288 288 288 287 286 285 284 283 283 282 282 283 283 283 283 287 288 287 283 281 280 280 280 279 278 279 280 280 279 279 278 278 278 278 279 279 278 278 281 281 279 275 272 270 267 267 266 265
290 291 291 291 291 290 289 288 288 287 287 288 287 287 287 287 287 287 288 287 287 287 287 287 286 287 286 287 287 287 287 286 287 291 291 292 291 288 288 288 287 286 285 284 282 282 282 282 284 285 285 286 287 288 287 285 281 281 281 279 278 279 281 280 280 279 278 277 277 277 276 277 276 276 275 275 276 276 275 274 273 270 268 266 265
289 290 290 289 288 288 288 288 288 288 287 287 287 287 287 287 286 287 287 287 286 286 286 286 286 286 286 286 287 287 287 286 286 289 291 292 292 289 288 287 287 286 285 284 283 282 281 281 282 285 286 286 288 288 288 286 284 281 281 280 280 281 282 279 280 280 277 276 275 275 275 275 275 274 273 273 273 274 275 276 274 272 269 266 265
287 289 289 287 287 286 286 286 287 287 287 286 287 287 287 286 286 286 287 286 286 286 286 286 286 286 286 286 286 286 287 286 286 287 290 291 291 291 288 287 287 286 285 283 283 282 282 282 282 284 286 287 287 288 288 287 285 281 281 283 283 283 281 280 279 278 276 275 274 273 273 273 273 272 272 272 273 273 273 273 273 271 270 269 268
286 288 287 286 286 286 286 286 286 286 286 286 286 286 286 286 286 286 286 286 286 285 285 285 285 285 285 286 286 286 286 286 286 286 288 290 291 291 290 288 289 286 285 284 283 282 282 282 282 284 286 287 287 288 288 288 285 283 284 284 283 284 280 278 277 276 275 274 273 273 273 273 272 272 272 272 273 273 273 272 271 270 269 269 270
283 285 286 286 286 286 286 286 286 286 286 286 286 286 286 285 286 286 285 286 285 285 285 285 285 285 285 285 285 285 285 286 285 286 286 288 290 291 291 290 288 285 284 284 283 282 282 281 282 284 286 286 287 288 288 287 285 285 284 284 284 282 277 276 276 275 274 273 273 272 272 273 273 272 272 272 273 273 272 271 270 269 268 268 269
281 282 284 285 285 285 285 285 285 285 286 286 286 285 285 285 285 285 285 285 286 285 285 285 285 285 285 285 285 284 285 285 285 285 285 286 289 290 290 290 289 287 284 283 282 282 283 284 284 284 285 286 287 288 287 287 287 285 284 284 283 279 276 275 275 274 273 273 273 273 273 273 274 274 274 274 273 271 270 270 270 270 269 269 269
280 279 278 279 280 283 285 285 285 285 286 286 286 285 285 285 285 285 285 285 285 285 285 285 285 285 285 285 285 284 284 284 284 284 285 284 285 287 288 288 286 286 284 282 283 285 286 285 285 285 285 285 285 285 285 285 286 285 284 283 281 278 276 275 274 273 273 273 273 273 273 274 274 274 273 272 270 269 269 268 268 267 267 266 265
279 277 276 277 277 279 282 283 284 284 285 286 285 285 285 285 285 285 285 285 285 285 285 285 285 284 284 285 285 284 283 283 283 283 283 282 280 281 281 282 284 284 281 280 282 282 283 283 283 284 284 284 284 284 284 284 284 284 283 282 280 278 276 275 274 274 273 273 273 273 273 273 273 272 270 270 269 269 269 267 267 266 266 266 265
278 276 276 276 277 276 278 280 280 280 281 284 285 285 285 285 285 285 285 285 285 285 285 285 284 284 284 285 285 284 283 282 281 280 278 279 278 278 278 279 278 278 279 278 279 280 281 282 283 282 282 282 282 280 280 279 280 281 281 280 278 276 276 277 276 274 274 274 273 273 272 271 270 270 269 269 268 268 269 267 266 265 266 264 263
275 275 276 276 276 277 277 276 277 277 277 277 281 282 283 284 284 284 282 283 283 283 284 284 284 284 284 284 284 283 280 279 278 282 280 283 280 278 278 278 277 277 279 281 278 278 279 279 279 279 279 279 280 279 277 277 277 279 278 277 275 275 274 274 273 273 273 273 272 272 271 270 269 269 268 268 268 267 268 266 267 264 264 265 263
275 276 276 275 276 276 275 275 276 277 276 275 275 275 280 283 281 279 279 282 283 284 284 281 281 281 281 281 281 280 279 276 285 286 286 285 285 284 283 283 283 279 282 283 279 276 277 277 277 277 278 278 278 277 277 277 277 277 277 277 274 273 273 273 273 273 272 272 272 271 270 269 268 268 267 267 267 267 267 267 264 265 263 263 262
276 276 276 274 275 275 275 275 276 275 277 277 275 275 275 278 282 283 282 281 283 283 284 284 285 284 280 277 279 286 284 286 286 286 286 285 285 285 285 285 285 284 284 280 275 275 275 275 275 276 276 277 277 277 277 277 276 276 275 274 274 273 272 272 272 272 271 271 270 270 269 269 268 268 267 267 266 266 266 266 264 264 263 262 262
275 274 275 274 275 275 274 274 274 276 274 274 275 275 275 273 275 280 281 282 282 282 283 283 283 283 284 282 278 275 283 285 286 285 285 285 285 285 285 285 285 284 284 283 275 274 275 275 275 275 276 276 276 276 276 276 276 275 275 273 273 272 271 271 272 271 271 270 269 269 268 268 268 267 267 266 266 265 265 264 264 263 263 263 263
274 273 273 273 274 275 274 275 274 274 273 274 274 275 275 274 273 274 276 280 281 281 282 282 282 282 283 283 283 283 283 284 285 285 285 285 285 285 285 285 285 285 284 280 274 274 273 275 276 276 276 276 276 276 276 276 276 275 275 274 273 272 271 271 272 271 270 270 269 268 268 268 267 267 267 266 265 264 264 263 263 263 263 262 262
271 271 271 272 274 273 274 272 274 273 272 273 272 274 273 274 273 273 273 274 275 278 281 281 281 282 282 282 282 282 282 282 283 284 284 284 284 284 284 282 285 285 283 277 276 275 276 276 276 276 276 276 276 276 276 276 276 275 275 274 274 273 272 271 270 269 269 269 268 268 267 267 267 266 266 265 265 264 263 263 263 262 262 262 261
271 273 273 273 272 273 273 272 272 272 272 273 272 272 272 272 273 273 273 273 273 274 275 276 280 281 278 280 282 282 282 282 282 282 283 283 283 284 284 279 279 280 281 280 278 277 276 276 276 276 276 276 276 275 275 276 275 275 274 274 273 273 270 269 269 269 268 268 268 267 267 266 266 266 265 264 264 263 262 262 263 262 261 262 262
271 271 271 272 272 272 271 271 271 271 272 271 271 271 271 271 272 272 272 271 271 271 272 272 272 278 281 280 281 281 281 281 281 282 282 282 283 283 278 278 278 278 279 280 279 279 278 278 277 277 277 276 276 276 276 275 275 275 275 274 272 271 269 268 267 267 267 267 267 267 266 266 266 265 265 264 264 263 263 263 262 263 263 262 262
270 269 270 270 270 270 269 270 270 271 274 271 272 271 271 271 271 271 271 271 271 271 270 271 272 273 276 275 278 279 280 280 280 281 281 282 282 281 279 279 279 279 279 279 279 279 279 279 279 278 278 277 277 276 275 274 274 274 274 273 272 271 270 269 267 267 266 266 266 266 265 265 265 264 264 263 263 263 263 263 262 262 262 262 262
268 269 269 270 270 270 270 270 270 273 271 271 271 271 271 271 271 271 270 270 271 270 269 270 273 271 271 272 277 276 276 278 279 279 280 280 280 279 279 279 279 278 278 278 278 278 278 279 278 278 277 277 277 276 275 274 273 273 272 271 271 270 270 269 268 267 266 266 265 265 265 264 264 264 264 263 263 263 262 262 261 261 262 262 261
268 271 272 273 273 269 269 269 270 270 270 270 270 270 270 269 269 269 268 268 267 268 268 268 268 269 270 271 271 273 273 272 273 273 275 276 276 277 277 278 278 278 278 278 277 276 277 277 276 276 276 276 275 275 274 273 272 271 271 270 269 269 268 268 267 266 265 265 265 265 264 264 264 263 263 263 262 262 262 262 261 261 260 260 261
268 266 270 271 269 270 269 269 269 268 268 267 267 267 267 267 266 266 266 266 266 266 266 266 267 267 269 269 270 270 269 270 270 271 272 273 273 274 276 277 278 278 277 277 277 276 276 276 276 276 275 275 274 273 273 272 271 270 269 269 268 268 268 267 266 266 265 265 264 264 264 263 263 263 262 262 261 262 261 261 261 261 261 260 260
266 267 269 270 270 268 268 267 267 266 266 266 265 265 265 266 266 266 264 264 265 265 265 265 265 266 268 271 273 273 268 267 267 268 269 270 271 271 272 273 275 275 276 276 277 277 277 277 277 276 275 274 273 272 271 270 269 268 268 267 267 267 266 266 266 265 265 264 264 263 263 263 262 261 260 261 262 261 261 261 260 261 260 260 260
265 265 265 266 267 266 265 265 265 266 264 265 263 264 264 264 264 264 265 264 265 265 264 264 263 264 268 271 271 272 268 265 266 267 267 267 267 267 269 269 270 271 272 273 274 274 274 274 274 275 273 272 271 270 269 268 268 268 268 267 266 266 265 265 265 265 264 264 263 263 262 262 261 262 261 262 261 261 260 260 259 260 259 259 259
264 264 264 265 264 264 264 263 263 262 263 262 263 265 265 264 263 264 263 264 264 264 263 263 262 264 265 269 269 270 265 264 266 265 264 265 265 266 266 266 267 267 267 268 270 270 271 271 271 272 272 271 270 269 269 269 268 268 267 267 266 266 265 265 265 264 264 263 263 262 262 262 261 261 260 260 260 260 259 259 259 259 259 259 259
263 264 264 264 263 263 264 262 262 263 262 264 264 264 264 263 262 262 262 261 262 262 262 262 262 262 262 264 266 264 261 262 262 262 264 264 264 264 264 264 265 265 266 266 266 267 267 267 267 267 266 266 266 266 267 268 268 267 267 266 265 265 265 264 264 264 263 263 262 262 261 261 261 260 260 260 260 259 259 259 258 258 258 258 259
261 262 262 262 262 261 261 262 262 261 263 262 261 261 263 261 261 261 262 260 262 262 261 261 261 261 261 261 261 261 261 261 263 263 262 262 262 262 262 262 263 264 264 263 264 265 266 266 265 264 264 264 264 263 263 264 265 266 266 266 265 265 265 265 265 265 264 263 262 261 261 260 260 260 259 259 259 258 258 258 258 258 258 258 258
261 261 261 261 261 261 261 259 262 260 260 260 259 259 259 259 259 260 261 261 261 261 260 260 260 260 261 260 260 261 261 259 260 261 262 261 261 261 261 261 262 261 261 261 262 262 262 262 262 263 263 264 264 262 260 260 263 264 265 265 265 265 266 266 265 263 263 262 261 261 260 260 259 259 259 259 258 258 258 258 258 257 257 257 258
259 260 260 260 260 261 261 261 259 259 258 259 259 259 259 258 259 260 261 261 260 261 259 258 258 258 259 259 260 259 260 260 260 260 260 260 260 260 260 259 260 260 260 260 259 262 261 262 261 261 261 261 261 261 260 259 259 260 261 263 263 264 264 263 263 263 262 262 262 261 260 259 259 258 258 258 258 258 257 257 257 257 257 257 257
258 258 259 260 259 258 258 258 258 262 259 259 259 259 259 259 258 259 258 258 258 258 258 257 257 258 259 259 260 259 260 260 261 261 261 259 258 260 260 259 260 259 258 259 259 260 260 259 259 259 260 259 259 258 258 256 256 257 258 260 261 262 262 262 261 262 261 261 260 260 259 259 258 258 258 258 257 257 257 256 257 257 257 257 257
257 257 257 258 258 257 258 257 259 257 256 257 257 257 258 257 257 257 257 257 257 257 256 256 257 258 258 259 259 259 261 261 261 260 259 259 259 259 260 259 258 259 258 259 259 259 258 259 258 258 257 257 257 257 256 256 256 257 258 259 261 261 261 261 260 260 260 260 259 259 259 259 258 258 258 257 257 257 257 257 257 256 257 257 256
256 257 257 257 257 256 257 257 256 254 256 256 255 255 256 256 255 256 256 256 256 256 255 256 257 257 257 258 260 261 261 261 261 260 259 259 259 259 259 259 259 259 259 259 259 258 258 256 257 256 255 255 256 256 255 256 257 258 258 259 261 261 261 261 260 260 260 258 259 258 258 258 257 257 257 257 256 256 256 256 256 256 256 256 256
257 256 256 256 256 256 255 254 253 253 253 254 253 253 255 254 253 254 255 254 254 254 256 254 253 256 256 257 259 259 259 258 258 258 258 259 259 259 260 260 261 261 260 259 259 258 258 256 256 256 255 256 256 256 255 256 256 257 260 261 261 261 261 260 259 259 259 258 257 257 257 257 256 256 256 255 255 255 256 256 256 256 256 256 256
Wind_Speed
5 5 4 5 5 7 7 6 7 6 6 7 8 9 9 9 9 8 6 8 7 8 8 10 10 10 10 10 10 9 10 9 9 9 9 9 8 9 9 10 11 8 9 8 6 7 8 9 8 7 7 8 6 6 5 4 4 4 5 5 5 3 5 5 7 4 1 2 4 2 2 3 1 1 2 3 2 3 3 4 5 4 4 4 3
5 5 5 4 5 5 6 5 5 5 6 6 7 7 6 7 7 5 6 6 7 7 7 7 7 8 9 9 9 9 9 10 10 10 10 10 9 8 10 10 9 9 9 10 9 8 8 9 7 7 6 8 7 7 6 6 5 6 5 6 6 6 3 4 5 6 6 0 3 3 2 3 1 1 4 3 3 3 4 4 5 4 4 4 4
4 4 5 5 6 5 5 5 5 5 6 6 6 6 5 5 4 5 5 5 4 6 6 7 7 7 8 9 10 10 10 11 10 11 11 12 11 9 9 10 10 10 9 9 9 8 9 9 9 8 6 8 7 7 6 7 6 7 7 6 7 5 3 3 5 5 7 4 3 3 3 2 4 3 3 4 4 4 4 5 5 5 4 3 3
5 4 4 5 5 5 6 6 5 5 5 5 6 5 5 5 4 3 4 4 6 5 6 7 8 9 10 10 10 11 11 11 11 11 13 13 12 12 10 9 9 11 12 11 10 9 10 10 9 9 8 9 8 7 6 6 7 7 6 5 6 6 4 3 3 4 4 6 3 6 3 5 3 3 4 3 4 4 4 5 4 5 5 3 3
3 4 5 6 7 7 7 6 6 7 7 5 6 5 5 5 4 4 4 4 5 6 6 6 8 9 10 10 11 11 12 12 12 11 10 10 12 14 13 11 11 11 11 12 12 12 12 12 11 10 10 10 8 8 8 9 7 7 7 6 6 5 4 5 4 3 4 6 4 2 3 3 4 4 4 5 3 3 3 4 5 4 5 4 2
4 4 4 5 6 6 6 5 5 5 5 5 5 5 5 5 6 5 5 7 7 7 8 8 8 9 9 10 10 11 11 11 12 12 11 10 10 11 13 14 13 11 10 10 10 10 11 11 12 11 11 12 10 9 9 11 8 8 8 7 6 6 6 4 4 4 4 4 5 3 2 4 3 4 5 6 4 3 4 4 3 3 4 6 4
2 3 4 5 5 5 5 4 4 4 4 5 5 5 5 5 5 6 5 6 5 5 5 6 6 7 8 8 9 9 9 9 10 10 10 11 12 11 10 10 11 10 10 10 10 10 10 10 11 12 12 11 11 12 11 11 10 10 9 9 7 7 7 6 6 6 5 5 4 4 5 4 5 4 2 4 4 4 4 3 4 2 3 5 7
3 4 3 4 4 5 4 4 4 5 5 5 5 5 4 4 5 5 5 6 6 7 7 7 7 7 7 7 7 7 7 7 7 8 9 10 8 7 8 9 9 9 8 9 9 9 9 10 11 12 11 11 11 11 12 12 9 9 8 8 8 8 8 7 6 6 6 6 6 6 5 5 3 2 2 3 1 2 1 2 4 5 7 5 5
3 3 3 3 3 3 4 3 3 4 5 5 5 5 5 4 4 4 4 4 4 5 5 6 6 6 5 5 5 6 7 8 8 8 7 6 9 14 13 11 11 10 9 8 9 9 9 9 9 10 11 12 14 12 13 11 12 11 9 9 9 9 8 7 7 7 6 6 6 5 5 6 5 5 5 5 6 5 1 1 2 3 5 7 8
3 3 3 3 3 3 4 4 3 3 4 4 5 5 5 4 4 4 4 4 4 4 4 4 4 5 5 4 4 5 5 5 7 13 14 12 9 7 8 10 11 11 11 10 8 8 9 9 9 13 14 14 15 15 15 14 12 11 13 12 11 10 9 9 8 8 7 8 8 7 6 7 7 7 6 4 2 2 1 1 3 4 4 6 7
3 3 4 2 3 2 2 3 2 3 3 4 4 4 4 4 3 4 4 3 4 4 4 4 4 5 6 6 6 5 5 5 10 10 10 11 10 9 10 9 9 11 11 12 12 10 9 9 8 11 12 12 13 17 16 16 14 11 13 14 14 14 12 10 9 9 9 9 6 6 7 7 6 5 5 4 2 3 3 1 3 3 3 4 8
2 3 4 3 2 1 2 3 3 3 3 4 3 3 2 2 3 3 3 3 3 1 3 4 4 4 4 4 5 6 6 7 10 11 12 12 11 9 9 9 10 10 10 11 11 10 10 8 7 7 8 10 10 12 13 14 13 13 14 13 13 12 10 11 11 9 8 8 8 9 7 7 6 6 4 5 4 3 2 2 2 3 3 4 4
2 4 3 3 2 2 2 2 3 3 3 2 1 1 1 1 2 2 3 2 0 2 3 2 3 3 3 4 5 4 4 7 11 13 14 15 14 10 7 9 11 10 10 10 10 10 9 8 8 6 6 11 10 9 8 8 10 13 13 12 11 11 9 7 4 9 9 8 9 8 9 6 6 6 6 5 4 5 2 3 3 2 3 4 6
2 3 3 2 2 2 2 1 2 1 1 0 0 0 0 2 1 1 1 1 2 3 2 3 2 3 4 4 4 4 4 6 10 11 13 15 15 12 7 9 9 9 10 10 9 10 10 10 9 8 6 8 8 9 8 8 8 8 7 6 6 7 7 7 5 6 7 8 8 8 5 6 6 5 5 6 7 5 5 5 3 3 4 7 6
2 2 1 1 1 1 2 2 2 1 1 0 0 0 1 1 1 1 1 3 3 3 3 3 3 3 3 3 4 4 4 7 12 13 13 13 13 9 5 5 6 6 6 7 8 9 9 9 9 9 9 9 9 10 11 10 9 8 7 7 7 6 5 5 5 4 4 3 4 4 5 5 6 6 6 5 6 5 4 4 4 3 3 3 6
3 2 2 2 2 2 3 3 2 2 2 1 1 1 1 1 2 1 1 1 0 1 1 2 3 3 2 3 4 5 4 8 11 12 13 12 12 5 5 6 6 6 6 7 7 7 8 9 9 9 9 9 10 14 10 10 9 10 9 6 5 5 5 3 3 3 2 2 3 3 4 5 7 7 6 5 4 4 3 2 1 0 2 4 7
3 3 2 2 2 2 3 3 2 2 2 2 2 2 2 1 1 1 1 1 1 1 1 0 0 1 1 2 3 3 3 5 9 10 10 12 9 5 6 5 6 7 7 7 7 7 8 9 9 9 9 9 12 16 15 12 9 10 9 8 6 5 4 4 8 9 9 7 7 9 9 9 8 8 8 9 7 6 5 2 4 3 2 5 5
3 3 3 2 2 3 3 3 3 3 3 3 3 2 2 1 2 2 2 2 1 1 1 1 1 2 3 2 1 1 0 1 4 5 8 10 8 5 4 5 5 6 5 6 7 7 9 14 11 10 10 9 15 18 17 13 10 10 9 9 8 7 6 5 5 5 8 7 7 6 6 5 5 6 7 8 9 7 8 8 5 6 5 4 6
3 3 4 3 2 2 2 2 3 3 3 3 2 2 2 2 1 2 2 2 2 2 2 2 1 1 1 2 2 2 2 2 5 6 8 9 7 4 5 5 6 6 5 6 5 6 6 10 13 11 11 11 18 18 18 14 9 10 10 9 9 9 9 8 8 8 6 5 3 3 2 4 3 3 4 9 10 7 6 5 5 5 5 5 5
2 3 3 1 0 0 1 2 2 2 2 1 1 2 2 2 1 1 1 2 2 2 2 2 1 1 1 1 1 1 2 2 4 7 8 9 10 5 4 6 7 6 5 6 6 5 6 6 10 13 14 14 17 18 18 17 10 8 8 9 9 10 7 8 8 7 6 6 4 4 4 4 4 4 4 4 5 4 5 4 6 6 6 6 5
1 2 3 2 2 2 1 0 1 0 1 2 2 2 2 2 2 2 2 2 2 2 2 2 1 1 0 0 0 1 1 2 3 8 10 11 12 10 6 6 4 5 5 5 6 7 6 6 5 10 15 15 17 18 17 17 10 7 9 9 8 3 8 8 8 8 6 6 5 4 4 3 4 4 4 4 4 5 6 5 5 5 6 6 6
2 3 3 3 3 3 3 2 1 1 0 2 2 2 1 2 2 2 2 2 2 2 2 1 1 1 1 0 0 1 0 2 2 6 10 11 12 12 6 5 4 6 6 6 6 6 6 6 6 9 14 15 17 17 18 16 15 8 9 8 6 10 9 5 6 6 6 5 5 5 4 5 5 5 5 5 5 6 6 4 4 4 3 5 6
3 4 3 4 4 4 3 3 2 2 1 1 2 2 2 2 1 2 2 2 2 2 2 1 1 0 0 0 0 0 0 0 3 3 8 10 10 11 9 4 6 5 7 8 8 7 6 7 7 12 15 16 18 19 18 19 14 9 12 12 10 11 8 5 6 6 6 5 5 6 6 6 6 7 6 6 6 6 5 4 4 3 1 0 1
5 5 4 3 3 4 3 3 3 3 2 2 2 2 2 2 2 1 1 2 1 1 1 1 1 1 1 1 1 1 1 2 3 5 5 9 10 9 10 8 4 3 3 5 4 5 6 7 7 13 15 16 18 18 18 17 11 14 14 14 13 11 6 6 6 6 6 5 7 7 8 7 6 6 7 6 5 5 4 3 3 3 2 0 3
5 5 5 4 4 3 4 4 4 3 3 2 2 2 2 2 2 2 2 1 1 1 0 0 0 1 1 2 1 1 2 2 2 3 4 5 7 8 9 9 6 5 3 2 2 3 3 6 8 13 13 14 16 17 15 16 17 15 16 15 12 7 7 7 7 6 7 9 9 7 7 7 6 4 4 5 4 3 4 2 3 2 2 1 3
5 5 4 4 4 3 3 4 4 4 3 3 3 2 2 1 2 1 1 1 1 0 0 0 0 1 2 2 1 1 2 2 1 1 2 2 4 7 7 8 8 6 5 3 4 7 9 10 11 13 13 11 10 9 9 10 14 15 15 14 8 7 7 7 7 8 9 8 8 8 6 3 3 3 3 4 5 5 4 4 3 1 2 0 3
5 4 4 3 4 4 4 3 2 3 3 3 3 2 2 2 2 1 1 0 0 0 0 0 1 1 2 2 1 1 1 2 1 1 2 2 1 1 2 3 4 4 3 3 5 5 7 7 7 8 6 11 12 8 6 6 8 9 8 7 6 7 7 7 8 8 7 6 6 4 3 3 3 5 5 5 4 4 4 4 3 3 3 1 1
5 4 4 4 3 3 3 4 3 2 2 2 2 2 1 1 1 0 0 0 0 1 1 1 2 2 2 3 2 2 2 2 2 3 3 4 2 2 3 2 3 3 4 3 3 3 4 3 5 4 5 5 6 4 3 3 4 4 4 4 5 4 6 7 5 5 6 5 3 2 3 4 6 5 4 4 4 4 3 4 5 4 3 3 0
4 4 4 4 4 3 3 3 3 2 2 3 3 3 2 3 3 4 4 3 2 2 2 3 3 2 1 1 1 3 2 3 4 5 6 6 6 5 5 5 3 3 5 7 5 4 4 4 4 4 4 5 5 5 2 1 2 4 5 5 5 6 6 7 8 9 7 5 6 6 5 5 5 4 5 5 5 5 3 5 3 6 2 3 4
5 5 5 4 4 4 3 4 4 4 4 3 3 3 6 3 2 2 1 4 4 4 2 1 0 0 2 2 1 2 3 2 5 8 8 9 9 9 8 8 7 6 8 12 7 4 4 5 5 5 5 5 6 6 7 8 9 8 7 7 6 6 7 7 7 6 5 6 5 5 6 6 6 6 6 6 4 4 5 6 5 3 5 4 3
5 5 4 4 4 4 4 3 4 4 5 5 4 2 1 4 7 6 3 3 3 3 3 3 3 3 2 1 4 4 4 4 5 6 8 8 10 10 10 11 11 11 12 8 4 5 4 4 3 3 4 5 7 7 7 7 7 6 6 5 5 6 7 7 7 4 4 5 5 5 5 6 7 6 7 6 6 5 5 4 5 4 4 4 3
6 4 5 3 4 3 3 3 3 4 3 3 3 3 3 2 3 3 4 3 2 2 3 3 4 4 5 5 3 3 2 1 2 4 4 6 7 8 9 10 11 12 14 11 4 3 4 5 4 4 5 6 6 4 5 5 6 6 5 6 7 6 7 8 5 5 5 5 7 6 7 7 7 7 6 7 6 6 6 6 5 5 4 4 5
6 4 4 3 4 4 5 5 4 4 4 4 4 4 4 5 4 5 4 2 4 3 3 3 3 5 5 6 5 3 2 1 2 3 4 5 6 6 8 9 9 11 11 7 6 7 6 6 7 6 6 7 7 6 6 6 6 7 7 8 8 7 6 6 4 6 7 8 7 8 8 8 7 7 7 7 7 7 6 6 5 4 5 4 4
5 4 4 4 5 4 4 4 4 3 3 3 3 4 3 3 3 2 3 6 5 3 3 4 6 5 6 5 4 4 4 3 2 3 4 5 6 6 6 4 8 10 10 7 6 7 6 6 6 7 8 7 7 7 7 8 7 7 7 7 8 6 6 6 7 8 7 7 8 8 7 7 7 7 6 5 5 5 6 6 6 6 6 6 5
5 7 8 6 5 5 5 5 5 5 4 4 5 4 3 4 3 3 3 3 3 3 5 4 4 4 3 5 7 8 7 6 6 5 5 5 5 6 5 4 5 5 6 6 6 7 7 7 7 6 5 6 6 5 7 6 6 6 7 7 7 6 6 7 8 8 8 7 7 7 7 7 7 6 7 7 7 7 7 6 6 6 6 5 5
6 6 5 6 6 6 5 5 5 5 5 4 4 4 4 4 4 4 4 4 4 5 6 5 4 6 6 6 7 9 8 9 7 7 5 5 5 5 2 4 4 5 5 5 6 6 6 7 6 6 5 6 5 6 6 7 7 7 7 7 7 6 6 6 6 7 7 7 7 7 6 7 7 6 6 6 8 8 7 7 7 6 6 6 5
5 5 5 5 5 5 5 5 5 5 5 6 5 6 6 5 5 6 5 5 5 5 6 6 7 7 6 5 6 9 11 11 11 9 9 7 7 4 4 4 5 4 5 6 6 6 6 6 6 6 6 6 6 5 5 6 5 6 6 6 6 6 6 7 7 6 7 7 7 7 8 8 7 8 8 9 7 7 7 6 6 6 6 5 4
6 5 5 4 5 5 5 6 6 6 6 6 6 5 5 5 5 5 5 5 5 5 6 6 5 6 6 6 8 7 8 9 9 6 6 5 5 4 4 4 4 4 5 4 3 4 5 5 4 4 5 4 5 5 5 5 5 5 6 6 6 6 5 6 5 7 7 7 7 7 8 8 8 8 8 8 8 8 7 7 6 7 5 6 5
5 7 9 8 5 5 5 4 5 5 5 5 5 5 5 5 5 5 5 5 4 4 5 5 5 5 5 6 6 6 7 6 6 6 6 5 3 3 4 4 4 5 4 4 4 4 5 5 4 5 4 4 5 5 5 5 4 5 5 5 5 4 5 5 6 6 6 7 7 7 7 7 7 7 8 7 8 7 7 7 7 7 7 6 6
5 4 6 7 5 5 5 5 4 4 5 3 4 3 3 4 3 3 3 3 3 3 4 4 4 4 5 6 6 6 6 6 5 6 6 6 6 6 5 4 4 4 5 4 4 4 4 4 4 4 4 4 4 4 4 4 4 4 3 4 5 6 6 5 6 6 7 7 7 7 7 7 7 6 6 7 7 7 7 7 6 7 6 7 6
5 5 5 5 6 5 5 5 5 3 3 3 3 4 3 3 3 3 3 3 3 3 4 4 4 5 5 7 10 9 5 6 6 5 6 5 5 5 6 6 6 7 7 6 6 5 5 5 5 4 4 4 4 4 4 3 3 3 4 4 5 6 5 5 5 6 6 6 7 7 7 7 7 8 10 8 7 6 5 5 5 5 6 5 5
5 4 4 4 4 4 4 5 5 5 3 4 3 2 4 4 2 3 4 3 5 4 4 4 4 4 6 11 10 11 7 5 5 6 5 6 6 5 5 5 5 5 5 6 6 6 7 6 6 6 5 4 4 3 2 3 3 4 4 5 5 5 6 6 6 7 7 7 7 8 7 8 8 7 8 7 6 6 7 6 7 6 5 5 5
3 3 2 4 3 3 3 3 2 3 2 3 2 3 3 2 3 4 3 4 3 4 4 5 4 5 5 8 9 9 4 5 5 5 4 5 5 6 6 6 6 6 6 6 6 6 6 6 6 6 6 5 4 3 3 4 3 4 4 5 5 6 6 6 5 6 6 7 7 8 8 7 7 7 7 7 6 6 7 7 6 6 6 5 6
3 4 4 3 3 3 3 3 3 3 2 3 2 3 2 2 2 1 2 2 3 2 3 4 4 5 4 6 6 5 4 5 5 4 4 5 5 5 6 6 6 6 6 6 7 6 6 6 6 6 6 6 5 3 3 3 3 4 4 5 6 6 6 6 6 7 7 7 7 7 7 7 6 6 6 7 6 7 6 6 6 6 6 5 5
4 4 5 4 4 4 4 3 2 3 5 5 4 4 5 2 2 2 2 2 4 3 3 3 4 4 6 5 5 5 5 5 5 5 6 6 5 6 5 6 6 7 6 6 6 6 6 6 6 6 6 6 6 4 3 3 3 4 4 5 6 6 7 7 7 6 5 6 6 6 6 7 7 6 6 6 6 7 6 6 6 5 6 5 6
5 4 5 3 4 5 4 3 5 3 2 2 1 2 3 3 2 1 3 2 3 2 2 3 3 4 5 4 4 6 6 4 5 5 6 6 5 6 5 6 6 5 5 5 6 6 6 6 6 6 6 7 7 6 5 3 4 4 4 4 5 6 6 5 4 3 5 6 6 6 6 6 6 6 6 6 5 5 5 5 4 5 6 6 6
4 4 3 3 2 4 4 3 2 2 1 2 1 1 1 2 1 2 4 4 2 4 2 3 3 4 4 4 5 4 6 4 6 6 5 4 5 6 6 5 6 6 6 6 5 6 6 6 6 6 6 6 6 6 7 4 3 3 3 4 4 5 5 3 3 4 5 6 6 6 6 6 6 5 6 6 5 5 5 6 6 6 5 5 5
3 4 2 3 2 2 2 2 1 3 2 2 1 2 3 2 2 3 3 3 2 3 3 4 4 4 5 5 4 4 5 5 5 6 5 6 5 6 6 6 6 6 5 6 5 6 6 6 6 6 6 6 5 6 6 5 4 4 3 4 4 5 4 3 3 3 4 4 5 5 6 6 5 6 6 6 6 6 6 6 5 5 5 5 5
2 2 2 2 1 1 2 1 3 1 1 1 1 2 3 1 2 2 3 2 2 3 3 4 4 4 4 4 5 5 5 6 5 5 5 5 5 6 6 6 6 6 6 6 6 6 6 6 7 6 6 6 6 5 6 5 5 4 4 4 5 7 5 5 3 3 5 5 5 5 5 6 6 7 7 7 7 6 5 5 5 5 4 5 5
2 2 1 1 2 2 2 2 1 1 2 2 2 1 2 2 2 3 3 3 3 3 3 3 4 5 5 5 6 5 5 5 5 5 5 6 6 5 6 6 6 6 6 6 6 6 7 6 6 6 6 5 6 6 5 6 5 5 4 5 7 8 7 6 5 6 6 4 5 5 5 5 5 5 5 5 5 5 5 5 5 5 5 5 5
3 2 2 1 1 1 1 1 2 3 2 2 2 2 2 3 4 4 4 4 5 5 4 4 4 4 4 5 6 5 5 4 5 5 5 5 6 6 6 6 6 6 6 6 6 6 6 6 6 7 5 6 5 6 5 5 5 5 6 8 9 8 7 6 4 5 6 4 4 4 4 5 5 5 5 5 5 5 6 5 5 5 5 5 4
Wind_Direction
246 247 248 250 248 246 246 246 247 245 244 235 235 234 232 230 229 225 206 207 188 187 186 190 190 191 191 197 200 199 198 194 190 188 188 187 184 179 175 180 175 171 160 159 158 160 158 155 161 156 147 148 151 137 138 133 116 134 148 152 166 161 146 142 159 184 339 71 118 141 123 101 13 161 220 245 279 293 309 306 300 306 305 300 302
227 240 244 248 248 248 252 250 251 251 250 250 248 247 243 234 230 219 213 208 192 191 186 181 181 184 190 193 196 197 197 195 189 187 185 183 180 174 175 175 170 160 158 157 161 163 154 151 152 146 148 144 146 150 157 151 152 159 175 170 178 178 176 135 165 155 189 292 81 94 119 114 174 232 188 246 273 293 296 290 295 285 286 293 307
233 229 233 242 252 257 257 256 255 254 253 256 260 260 262 260 242 215 214 207 206 194 185 179 180 186 194 196 196 199 199 197 193 191 188 182 177 174 172 171 166 161 160 162 163 156 152 155 155 149 143 144 155 155 154 164 165 172 181 173 172 172 168 140 136 174 176 209 173 151 165 161 175 243 235 208 227 235 259 278 277 286 274 271 279
228 235 243 247 246 248 247 247 254 252 250 248 251 257 262 264 258 230 216 204 198 202 193 190 187 190 197 201 202 200 201 197 193 195 191 184 174 171 170 170 169 169 167 164 163 164 161 155 161 157 153 153 157 158 166 167 174 175 177 178 160 166 166 132 124 149 168 172 219 170 202 164 242 224 215 218 219 251 241 264 275 277 275 275 271
215 228 229 238 242 239 242 239 240 244 244 242 245 248 252 253 253 243 217 220 216 201 207 205 204 203 205 203 204 205 202 197 194 192 190 186 179 170 168 169 173 175 172 169 168 167 168 168 164 161 160 158 164 168 173 180 179 175 180 172 161 156 144 147 143 115 146 184 206 206 165 180 199 213 206 211 253 250 276 263 260 265 295 286 274
216 231 247 247 249 247 246 245 245 253 261 263 258 252 251 245 239 237 226 230 218 217 211 207 207 210 211 210 209 208 202 197 193 190 184 178 180 181 175 169 170 171 169 167 167 169 168 166 163 164 167 170 175 175 180 184 177 177 175 166 156 147 149 148 142 143 154 185 173 224 209 185 232 219 214 184 191 252 276 285 318 317 311 308 289
242 255 271 269 272 270 276 274 277 272 272 272 269 257 245 241 236 229 212 214 213 221 224 217 216 215 217 215 215 209 205 199 195 191 183 178 175 174 175 169 162 162 164 166 169 170 169 164 166 169 174 176 174 181 182 183 183 180 175 165 158 153 158 162 157 165 174 185 214 202 216 233 185 223 233 181 197 204 230 299 305 284 300 292 300
242 246 253 267 276 291 297 300 302 297 294 292 289 282 278 264 251 249 234 229 216 207 209 216 220 216 219 213 211 204 200 200 199 193 182 174 168 170 163 156 152 152 157 163 165 164 161 165 172 175 177 178 178 183 185 182 175 171 170 162 160 157 163 161 163 170 180 192 202 210 204 208 229 211 179 161 223 299 147 158 272 305 306 295 280
230 243 255 264 275 282 281 271 262 272 286 292 293 292 282 276 278 270 257 251 246 232 219 210 213 222 229 217 207 199 197 196 190 182 176 185 182 172 169 162 155 152 154 159 163 160 160 167 175 178 179 178 181 186 194 187 168 167 173 168 163 162 161 168 173 174 185 192 212 204 199 203 206 194 197 193 203 210 220 79 274 280 295 305 298
219 247 254 268 286 284 275 274 270 271 268 260 263 270 276 278 273 266 256 250 248 243 235 224 206 209 216 224 214 202 206 204 202 191 179 172 172 174 163 161 156 154 154 156 159 164 168 170 178 176 177 181 182 187 195 194 185 174 167 169 167 166 170 170 178 185 181 191 202 189 194 212 209 202 197 209 164 139 105 10 291 304 320 296 286
220 236 253 247 251 257 286 292 307 291 274 284 281 268 261 264 263 261 261 259 246 239 217 218 215 208 200 195 201 206 209 202 193 196 195 175 166 167 165 160 155 156 161 162 167 172 177 176 172 175 177 180 183 184 190 189 180 174 173 173 173 169 166 175 186 181 184 197 188 186 199 204 208 183 182 178 153 160 176 164 254 315 323 338 314
233 248 230 224 205 213 262 282 282 273 282 265 271 281 281 271 262 259 256 250 250 224 215 227 227 216 207 202 201 199 201 196 192 187 180 175 173 167 161 158 162 164 169 172 170 170 172 170 169 167 176 178 173 178 183 179 172 166 169 173 181 189 187 173 174 181 191 185 188 202 184 202 192 171 175 160 168 130 164 176 204 243 264 268 256
248 257 256 210 200 201 211 237 259 277 279 294 295 312 229 249 251 246 250 270 158 208 238 233 231 212 192 200 211 211 214 203 193 182 176 172 172 169 170 168 167 172 175 176 171 168 166 165 167 174 172 169 167 169 163 156 152 155 160 166 178 181 184 196 208 197 178 181 186 191 194 177 174 194 172 155 130 158 177 200 208 216 230 250 255
221 257 261 237 208 197 188 195 256 270 260 211 152 193 210 250 261 248 223 176 208 231 225 220 217 203 205 206 209 200 200 194 190 188 184 181 177 172 172 172 174 172 175 173 170 168 168 168 170 177 173 171 169 164 160 152 148 145 152 162 175 179 183 184 155 175 186 191 182 190 179 158 174 147 142 142 151 178 174 210 194 224 231 244 263
263 250 240 235 195 193 192 196 210 196 167 147 139 136 221 239 210 222 187 208 211 219 221 215 218 208 207 195 189 200 209 192 186 186 185 182 178 170 162 156 150 155 165 170 166 167 166 169 177 180 175 178 177 170 163 159 155 158 162 175 181 184 187 190 187 182 181 184 180 150 145 136 140 136 137 137 150 160 162 181 195 208 243 285 290
312 318 289 229 211 206 199 207 198 175 156 154 175 212 223 209 216 197 165 178 174 184 218 203 225 226 209 184 184 206 209 195 197 192 188 184 169 146 147 149 153 157 164 166 161 162 165 168 174 178 177 180 180 173 165 155 156 161 170 175 177 186 208 202 193 193 186 180 162 153 134 124 130 130 135 132 126 133 110 71 72 43 296 287 272
300 292 280 248 225 212 203 203 204 183 173 176 205 211 201 210 188 148 165 173 195 199 222 197 172 194 209 215 209 216 206 204 193 187 180 168 158 157 153 153 161 169 176 168 161 161 168 172 176 178 175 181 177 173 167 156 160 169 171 175 180 176 195 188 199 205 198 170 132 132 133 136 145 156 168 177 168 148 118 139 236 184 199 258 280
301 303 297 271 242 221 205 194 196 189 190 215 215 207 187 172 176 166 179 186 209 214 163 117 115 152 168 183 172 192 271 218 194 184 174 171 166 161 158 159 172 176 168 162 162 170 177 178 178 174 175 176 177 176 171 162 169 173 170 169 173 184 190 175 169 159 150 135 133 130 131 136 157 189 197 203 201 166 150 191 206 149 195 218 249
310 299 287 268 249 218 203 198 193 190 211 230 203 194 188 186 182 155 154 146 154 135 131 130 108 109 136 157 137 148 137 182 191 183 179 179 171 165 165 172 177 186 165 167 170 168 174 179 179 176 176 174 179 179 175 171 176 177 175 171 181 194 197 172 177 174 169 158 173 138 149 171 173 165 202 206 201 189 178 187 172 152 208 224 246
332 343 344 346 323 233 190 190 192 192 211 190 152 168 155 119 113 131 106 118 123 129 129 122 130 104 120 142 156 152 136 149 197 198 196 192 183 174 179 178 195 183 172 169 168 183 179 181 185 177 174 175 183 183 182 178 179 177 172 181 181 207 181 178 190 184 172 177 174 172 173 173 174 175 192 198 196 190 199 188 183 180 194 216 216
50 12 2 32 25 25 27 129 186 186 176 179 170 154 151 147 143 139 133 108 107 100 96 91 98 76 69 49 169 242 164 160 198 206 208 204 196 186 191 203 189 168 174 174 185 183 188 187 184 182 178 178 184 188 188 186 179 177 184 192 197 154 152 177 179 164 163 164 171 174 171 185 185 184 189 191 198 201 205 204 180 167 168 191 217
102 52 28 20 21 18 27 32 50 90 113 124 119 112 90 123 144 149 127 119 120 110 100 100 100 84 53 39 24 316 282 193 190 222 221 219 213 202 201 205 182 169 173 188 184 195 189 182 184 185 181 179 185 188 189 187 184 183 199 190 171 166 165 164 157 156 159 165 171 188 190 198 199 196 198 201 205 204 202 187 153 153 157 169 187
63 81 45 30 18 17 14 32 31 43 56 77 111 102 87 88 96 120 120 119 128 123 120 115 115 114 61 342 30 30 49 227 211 225 233 233 232 223 218 207 180 173 187 195 195 191 177 182 180 180 186 179 184 189 193 190 186 194 192 189 182 163 146 151 153 155 168 180 189 207 205 201 202 205 201 202 203 198 186 171 151 133 118 122 219
54 62 50 31 28 22 21 19 23 27 40 64 80 97 79 83 76 77 87 115 118 138 155 137 146 182 233 235 172 148 144 163 206 215 222 228 231 230 225 219 199 202 196 209 191 186 182 185 178 179 186 186 188 192 195 190 192 190 192 189 179 156 146 161 171 171 172 191 210 216 213 205 202 206 205 192 192 189 172 146 123 103 107 322 286
58 56 44 33 25 19 25 24 23 20 21 42 65 67 71 73 70 53 76 58 65 83 58 89 348 322 295 283 219 151 169 165 197 219 215 225 230 228 225 219 217 169 197 217 175 204 166 146 160 179 187 191 194 197 199 198 195 186 188 187 174 157 169 174 174 165 192 211 219 221 220 211 205 197 175 167 154 123 124 128 124 124 138 207 254
63 53 52 41 19 12 41 38 23 19 17 26 45 63 84 59 70 62 60 58 78 67 54 117 234 281 288 284 257 176 172 176 183 164 171 192 221 228 222 213 211 201 186 169 164 150 141 151 164 176 188 195 196 202 203 203 194 185 188 188 180 174 172 177 178 184 210 217 221 223 222 182 176 158 137 114 150 182 162 163 143 126 111 4 308
76 54 46 56 32 27 40 36 36 20 8 27 49 57 56 52 68 71 70 64 69 76 322 85 233 242 282 295 276 142 168 189 166 115 125 149 168 214 218 222 197 165 137 104 126 139 154 156 173 181 193 202 208 219 224 196 199 198 194 191 184 185 188 189 190 199 209 219 226 226 184 162 127 138 165 163 182 197 184 172 161 158 141 173 216
89 83 70 72 57 73 70 29 50 61 21 21 34 36 38 58 65 80 142 295 200 262 226 245 243 241 258 260 247 227 218 220 194 154 164 160 161 157 167 170 172 166 141 110 94 104 110 123 150 167 182 199 210 216 224 216 218 208 199 192 183 179 194 200 208 215 220 214 220 162 163 154 178 175 165 180 192 197 186 174 175 156 153 117 174
80 72 63 51 43 54 55 47 46 68 51 53 54 57 63 42 25 55 40 27 60 66 39 28 31 360 334 274 294 287 281 262 243 183 175 172 168 163 174 182 164 154 151 133 103 95 113 141 166 176 183 192 204 203 194 201 259 229 212 199 183 184 184 191 208 214 208 200 211 200 193 174 188 172 181 189 197 184 196 172 202 142 180 177 200
75 64 50 43 26 38 43 32 27 38 40 46 47 12 356 26 63 109 3 27 50 45 74 128 204 339 32 330 328 240 253 237 180 151 158 164 173 176 174 174 170 153 159 158 144 145 178 191 195 188 188 196 208 204 203 208 213 214 216 207 194 194 204 212 220 218 199 208 204 196 198 187 195 188 190 196 196 178 194 180 208 169 149 191 197
75 66 62 49 39 47 50 37 26 42 34 27 28 57 5 350 17 24 34 13 27 42 41 34 25 29 47 302 341 65 130 133 151 166 166 172 174 176 176 180 177 170 168 148 161 179 192 210 214 202 212 208 220 219 219 222 225 225 222 211 216 214 220 222 224 208 207 204 209 207 202 200 204 195 193 196 189 191 184 181 153 200 181 183 206
98 86 84 78 59 56 63 62 55 57 33 33 40 25 41 32 342 350 0 354 2 43 45 48 44 29 22 21 20 353 20 78 146 164 189 194 193 191 185 183 182 178 185 169 168 202 200 221 218 213 209 221 231 233 231 229 231 232 234 230 233 223 220 231 213 203 216 212 214 211 207 209 205 202 194 193 184 189 183 187 181 184 200 205 218
86 74 57 58 59 57 51 49 51 52 44 35 23 34 39 38 41 350 333 1 350 359 15 37 40 32 28 24 23 27 355 298 198 198 190 202 199 203 205 205 198 191 182 181 184 206 202 209 220 219 211 225 220 216 223 220 221 224 225 227 236 227 222 223 193 211 215 215 210 214 209 208 204 200 198 190 185 189 186 189 199 186 195 201 225
74 71 56 58 65 56 50 47 51 45 43 45 46 48 43 49 21 11 12 356 352 342 353 16 21 17 12 17 3 359 352 343 282 236 224 209 215 213 202 204 208 209 196 195 199 219 217 225 226 221 222 223 218 210 219 221 218 223 223 229 230 225 211 192 197 213 211 211 213 217 210 209 204 198 199 185 190 180 193 191 186 193 204 205 198
66 53 47 47 57 49 40 35 34 37 33 39 31 34 22 2 21 35 37 18 3 349 349 354 355 23 7 2 6 5 358 347 331 308 286 265 248 232 216 184 202 214 213 205 205 216 220 227 233 234 230 234 237 227 235 232 223 223 225 226 227 217 196 192 207 207 210 210 215 215 211 206 204 198 190 186 186 191 199 194 199 197 199 213 213
53 50 39 35 38 41 39 34 30 28 25 12 12 19 25 27 28 10 9 17 23 12 353 358 348 340 353 351 7 1 347 338 333 319 306 280 263 240 214 223 221 223 226 231 228 230 229 234 236 242 230 232 224 224 228 232 232 233 234 230 229 218 204 204 204 207 210 209 214 209 201 206 198 191 189 194 199 199 196 196 198 204 198 201 212
53 50 37 22 29 44 46 41 26 20 21 18 19 16 15 21 19 15 17 22 19 8 2 348 356 350 358 357 18 353 348 343 332 323 316 307 289 267 236 229 227 229 225 227 231 238 238 241 233 244 240 239 241 233 223 227 227 226 230 224 223 221 218 209 205 200 201 209 209 202 203 202 196 190 189 196 202 194 195 193 192 195 196 189 180
62 54 40 39 39 33 35 28 20 27 27 27 22 22 16 16 12 14 22 17 13 9 5 357 1 355 356 346 4 357 348 337 330 329 322 319 317 316 300 290 280 272 275 283 281 273 272 274 267 255 253 242 245 246 235 235 226 224 227 227 223 231 220 212 205 203 207 209 209 205 203 203 196 194 195 197 199 195 195 195 182 175 189 194 201
46 40 41 42 50 48 41 38 35 36 28 26 25 20 17 21 17 19 11 13 9 11 5 359 353 358 353 354 349 346 356 349 360 347 344 327 305 290 285 285 286 281 284 282 285 277 274 275 270 267 256 246 246 244 234 236 228 225 221 220 226 224 218 215 213 208 206 212 212 207 204 204 199 196 198 197 202 195 190 189 190 188 191 199 208
47 37 39 43 39 45 48 50 44 44 35 38 18 24 28 29 26 15 6 8 1 5 351 358 349 348 345 350 340 346 359 343 342 336 338 338 343 340 331 316 296 294 291 291 287 282 282 283 282 274 269 262 248 246 240 233 234 234 219 223 226 232 227 218 217 211 213 212 209 207 203 201 197 191 196 202 198 195 187 190 190 190 191 202 210
36 38 33 33 37 39 42 48 41 31 31 25 30 34 25 27 13 9 10 6 359 356 359 345 340 327 340 340 342 344 351 334 328 329 326 329 328 332 329 337 337 337 337 335 333 326 320 312 310 301 294 280 265 252 242 230 224 215 225 230 233 240 234 226 216 219 218 209 209 204 204 193 191 185 192 201 190 189 184 186 185 194 195 197 201
47 45 42 38 37 45 51 41 33 14 31 29 29 27 18 10 358 12 4 3 352 350 341 336 322 322 335 343 343 344 345 333 326 321 320 323 319 318 321 324 327 327 331 335 340 336 334 331 327 325 319 309 292 265 235 220 223 226 236 236 236 238 236 231 222 221 218 214 210 205 200 195 192 196 192 185 179 185 177 188 184 191 193 200 201
51 71 62 59 54 54 59 37 28 39 26 17 5 355 356 2 0 359 360 349 346 344 341 336 328 337 342 335 339 337 335 320 320 321 324 322 328 327 330 326 329 332 334 333 331 327 321 319 319 321 323 322 300 269 242 247 233 238 245 243 242 241 240 236 227 220 217 216 213 206 198 193 189 186 181 186 178 181 184 187 186 191 195 199 198
51 50 43 60 61 47 44 68 28 21 9 341 336 323 329 353 351 357 357 341 337 335 341 325 328 330 325 325 333 336 330 325 329 320 325 325 327 327 326 329 331 338 336 337 331 337 338 335 329 326 329 326 315 281 262 247 228 234 240 247 251 246 244 236 229 222 214 214 209 199 193 190 184 180 180 184 181 184 185 183 190 192 190 194 193
41 45 43 42 36 47 25 27 28 14 357 8 5 2 1 21 3 351 357 344 327 332 325 323 322 320 319 323 324 333 324 329 323 333 322 322 318 321 321 328 328 328 328 331 334 344 342 334 330 325 321 316 314 297 266 257 249 243 246 248 257 254 248 238 237 229 209 203 202 193 188 185 184 182 184 186 185 185 189 191 186 187 191 196 198
28 33 38 41 35 28 30 7 29 14 356 352 353 352 340 0 348 354 326 316 314 314 308 310 308 317 317 320 319 328 318 321 322 316 323 321 324 318 318 317 321 323 328 328 334 334 330 326 323 319 316 314 308 308 292 264 249 256 254 253 253 260 263 259 241 198 195 195 194 189 183 180 185 185 183 183 183 182 185 188 181 193 196 200 206
21 34 34 35 24 22 6 31 21 344 352 338 357 358 332 313 319 327 333 330 333 321 330 318 330 319 317 318 321 317 322 331 324 328 326 325 324 322 325 327 330 330 331 332 331 326 321 321 316 314 307 304 302 301 296 279 258 260 267 269 275 275 283 268 216 195 193 188 181 169 177 174 181 178 173 172 176 182 178 192 190 196 194 197 200
20 25 23 32 26 27 8 31 9 351 8 331 331 316 304 314 335 326 326 324 331 327 329 329 324 316 322 322 318 332 326 328 325 327 325 329 323 325 322 324 321 322 320 324 316 317 313 310 308 307 303 302 303 302 301 289 277 268 267 268 266 268 255 219 181 176 167 162 163 166 167 170 174 174 175 177 182 183 183 193 188 192 193 197 196
23 24 24 14 30 10 24 15 340 344 307 309 317 315 312 331 322 321 318 323 321 325 319 317 316 320 325 322 324 322 315 317 317 318 316 314 314 312 313 312 320 320 325 316 313 311 311 308 307 302 301 298 302 300 303 296 286 275 267 262 261 256 225 180 168 171 153 149 154 155 164 167 173 177 178 183 186 184 181 176 178 183 185 192 193
18 12 31 12 26 340 347 354 321 310 309 325 320 310 317 331 325 317 319 316 319 312 313 319 323 321 322 318 316 309 316 314 313 311 316 310 314 313 318 317 317 315 314 312 311 313 313 311 309 307 306 304 301 300 297 292 281 269 259 254 255 251 227 189 166 157 155 163 161 169 167 174 171 176 176 176 172 171 173 179 180 183 188 188 195
4 10 13 2 343 323 352 341 333 332 330 314 321 327 311 307 302 304 308 311 308 305 310 307 311 306 310 300 303 304 302 304 308 315 315 317 311 312 310 315 313 314 312 314 310 312 308 311 308 309 304 305 300 299 294 292 282 271 260 257 251 238 219 193 175 152 138 140 149 152 161 168 168 166 166 162 167 174 182 175 182 185 190 191 185